Location: Darlington Observatory
(36.4817°N, 105.8156°W)
Time: 04:52:55
(UTC-06:00)

Daily predictions for brighter satellites

Satellite Brightness Start Highest point End
(mag) Time Altitude Azimuth Time Altitude Azimuth Time Altitude Azimuth
Terra 3.8 00:07:35 21° WNW 00:07:35 21° WNW 00:10:18 10° NW
Cosmos 1697 Rocket 4.5 00:14:58 21° ENE 00:14:58 21° ENE 00:17:09 10° NE
Cosmos 1655 Rocket 4.5 00:14:12 52° WNW 00:14:12 52° WNW 00:20:13 10° N
Cosmos 2297 Rocket 3.2 00:10:33 10° N 00:15:01 40° NE 00:15:01 40° NE
ATLAS 5 CENTAUR R/B 4.4 00:19:26 10° WNW 00:22:34 18° W 00:22:34 18° W
Cosmos 2278 4.5 00:40:34 49° N 00:40:34 49° N 00:44:46 10° NNE
CZ-2C R/B 4.3 00:41:46 37° NNW 00:41:46 37° NNW 00:44:49 10° NNW
Cosmos 2082 4.5 00:34:13 10° NNW 00:38:28 50° N 00:38:28 50° N
USA 229 DEB 4.0 00:42:08 56° NE 00:42:08 56° NE 00:47:33 10° NE
USA 229 4.1 00:42:16 55° NE 00:42:16 55° NE 00:47:39 10° NE
ATLAS CENTAUR R/B 4.3 00:45:26 12° NW 00:45:26 12° NW 00:46:38 10° NNW
Cosmos 2227 Rocket 3.4 00:59:44 10° NNW 01:03:06 35° NW 01:03:06 35° NW
CZ-2C R/B 4.0 01:01:14 10° N 01:04:48 31° NW 01:04:48 31° NW
Mayak 1.2 01:11:49 10° N 01:13:19 21° N 01:13:19 21° N
Cosmos 1980 Rocket 3.1 01:30:02 46° NNE 01:30:02 46° NNE 01:33:53 10° NNE
NOSS 3-1 (C) 4.1 01:32:24 47° NE 01:32:24 47° NE 01:36:54 10° NE
Cosmos 1745 Rocket 4.3 01:42:56 61° NNE 01:42:56 61° NNE 01:47:59 10° N
Cosmos 1697 Rocket 4.1 01:56:41 30° NW 01:56:41 30° NW 02:01:02 10° N
Cosmos 2297 Rocket 4.3 01:55:20 10° NW 01:56:49 16° WNW 01:56:49 16° WNW
SL-16 R/B 2.8 02:12:15 53° NE 02:12:15 53° NE 02:16:40 10° NNE
USA 234 3.2 02:04:49 10° NE 02:10:58 77° E 02:10:58 77° E
Cosmos 2322 Rocket 2.6 02:20:24 61° NE 02:20:24 61° NE 02:25:05 10° NNE
CZ-4C R/B 2.8 02:15:48 10° NW 02:23:10 78° WSW 02:23:10 78° WSW
ADEOS Rocket 3.4 02:22:59 10° NNE 02:28:47 50° E 02:28:47 50° E
ARIANE 5 R/B 4.4 02:27:36 10° NE 02:31:25 21° E 02:31:41 21° E
ATLAS 2AS CENTAUR R/B 3.9 02:31:06 32° SE 02:32:16 34° ESE 02:39:15 10° NE
Resurs 1-4 Rocket 3.5 02:31:54 10° NE 02:36:22 28° E 02:36:32 28° E
NOSS 3-1 (A) 3.8 02:37:25 50° NW 02:37:27 50° NW 02:43:39 10° NNE
Cosmos 1709 Rocket 4.1 02:52:47 58° WNW 02:52:47 58° WNW 02:58:31 10° N
CBERS-1 4.1 02:50:30 10° NNE 02:55:08 73° NNE 02:55:08 73° NNE
NPP 3.6 02:53:36 10° N 02:58:43 78° NNW 02:58:43 78° NNW
DELTA 2 R/B (1) 3.7 03:00:34 64° E 03:00:34 64° E 03:05:22 10° ENE
CZ-2D R/B 2.8 02:54:48 10° NNE 03:00:05 47° E 03:00:39 45° ESE
IRS-P3 4.2 02:59:33 10° N 03:04:35 66° NW 03:04:35 66° NW
Cosmos 2263 Rocket 2.1 03:00:39 10° NNW 03:06:23 89° ENE 03:06:36 83° SSE
ISS -1.1 03:07:44 17° N 03:08:50 20° NNE 03:11:20 10° E
Cosmos 44 Rocket 3.8 03:06:14 10° NNW 03:10:53 55° ENE 03:11:52 45° E
Cosmos 2360 Rocket 2.0 03:10:47 82° S 03:11:01 86° ESE 03:16:42 10° NNE
Cosmos 1980 Rocket 4.4 03:11:48 12° WNW 03:12:59 13° NW 03:15:25 10° NNW
SL-16 R/B 2.7 03:11:56 39° SE 03:14:23 71° ENE 03:20:38 10° N
Cosmos 2219 Rocket 4.0 03:12:53 18° SE 03:15:02 22° E 03:19:17 10° NE
Iridium 4 Rocket 4.1 03:15:39 44° SE 03:17:15 60° E 03:22:51 10° N
COSMOS 2428 3.6 03:16:07 36° SE 03:17:24 41° ESE 03:22:44 10° NE
Cosmos 1825 Rocket 3.9 03:13:13 10° N 03:16:56 62° N 03:16:56 62° N
NOSS 2-3 (C) 3.8 03:18:05 83° NE 03:18:05 83° NE 03:23:11 10° NNE
Cosmos 1758 Rocket 3.9 03:15:04 10° N 03:19:13 60° ENE 03:19:13 60° ENE
Cosmos 2327 Rocket 4.5 03:21:20 57° S 03:22:46 89° ESE 03:29:14 10° N
Cosmos 2228 3.4 03:27:01 54° E 03:27:06 54° E 03:31:18 10° NNE
Meteor 2-13 Rocket 4.4 03:27:02 58° WSW 03:27:49 63° W 03:33:55 10° N
Cosmos 2184 Rocket 3.9 03:27:12 60° SSW 03:28:22 77° W 03:34:34 10° N
BREEZE-M DEB (TANK) 4.4 03:30:00 31° SE 03:30:33 32° ESE 03:38:17 10° ENE
Cosmos 1302 Rocket 4.0 03:34:20 61° W 03:34:47 64° WNW 03:40:03 10° NNE
Cosmos 2333 Rocket 3.8 03:33:28 18° SE 03:36:22 27° ESE 03:41:04 10° NE
Cosmos 2322 3.6 03:36:07 59° WSW 03:37:00 70° WNW 03:42:40 10° NNE
Meteor 1-4 Rocket 4.1 03:39:10 28° NNW 03:39:10 28° NNW 03:41:11 10° N
ADEOS 3.5 03:35:52 10° NNE 03:41:07 89° E 03:42:15 57° SSW
IRS-1D 3.4 03:39:43 10° N 03:44:38 65° WNW 03:45:17 58° WSW
Spot 4 Rocket 4.1 03:40:56 10° N 03:46:01 60° WNW 03:46:50 53° WSW
Meteor 2-5 Rocket 3.9 03:41:20 10° N 03:47:00 70° E 03:50:51 22° SSE
Cosmos 1707 2.6 03:44:02 10° N 03:47:54 82° E 03:47:54 82° E
Cosmos 1378 3.3 03:46:26 10° N 03:50:08 66° E 03:50:27 62° ESE
Cosmos 1766 4.4 03:49:51 30° SE 03:51:03 39° E 03:54:43 10° NNE
Cosmos 972 Rocket 3.8 03:52:03 52° S 03:53:15 86° ESE 03:58:13 10° NNE
Cosmos 2058 Rocket 3.1 03:52:56 60° WSW 03:53:15 62° W 03:57:44 10° N
SL-16 R/B 4.0 03:54:07 15° WNW 03:55:39 17° NW 03:59:11 10° NNW
Cosmos 1953 Rocket 3.8 03:51:36 10° NNW 03:55:50 50° W 03:55:50 50° W
NOSS 2-3 (D) 4.4 03:55:34 38° W 03:56:36 44° NW 04:01:41 10° NNE
OAO 3 Rocket 3.1 03:59:40 52° WSW 04:00:46 76° S 04:05:39 10° E
Nadezhda 3 Rocket 4.0 03:54:37 10° N 04:00:53 85° E 04:05:51 17° S
Cosmos 962 Rocket 4.5 03:59:40 26° S 04:03:16 78° E 04:09:23 10° N
Cosmos 1812 Rocket 4.5 04:01:27 22° SSE 04:03:52 45° E 04:08:01 10° NNE
Cosmos 2322 Rocket 4.2 04:02:13 12° WNW 04:04:05 14° NW 04:07:04 10° NNW
Cosmos 44 3.4 04:01:44 10° NW 04:05:27 44° W 04:05:27 44° W
Cosmos 2333 4.1 04:03:53 39° SSW 04:06:08 82° WNW 04:11:52 10° NNE
Abrixas rocket 4.0 04:07:05 22° SE 04:07:05 22° SE 04:09:40 10° E
Cosmos 1184 Rocket 2.6 04:05:45 10° N 04:08:59 77° WNW 04:08:59 77° WNW
ARIANE 5 R/B 3.1 04:05:50 10° N 04:10:38 41° WNW 04:12:02 34° WSW
Intercosmos 24 3.9 04:10:01 44° S 04:11:12 87° E 04:15:56 10° N
Cosmos 1992 Rocket 3.9 04:09:51 35° SSW 04:12:08 88° ESE 04:17:21 10° NNE
USA 161 3.4 04:10:38 12° SE 04:13:00 30° ENE 04:15:39 10° N
ADEOS Rocket 4.4 04:09:27 10° NNW 04:13:54 21° WNW 04:15:43 18° W
ADEOS II 3.3 04:09:02 10° NNE 04:13:55 38° E 04:18:46 10° SSE
Okean O Rocket 3.7 04:11:03 10° NE 04:14:37 23° E 04:18:10 10° SSE
Lacrosse 5 4.0 04:12:20 10° SSE 04:15:42 18° ESE 04:19:04 10° ENE
Resurs 1-4 Rocket 3.0 04:11:31 10° N 04:16:09 32° WNW 04:17:37 27° W
Cosmos 1844 4.4 04:12:14 10° NNW 04:17:45 55° ENE 04:23:16 10° SE
Intelsat 5-1 Rocket 3.8 04:20:48 21° S 04:21:52 23° SSE 04:28:25 10° ESE
MOZ.5/SAFIR/RUBIN 5/SL-8 3.8 04:20:05 30° SSW 04:22:12 57° W 04:26:47 10° NNW
NOSS 0 Rocket 4.4 04:17:51 19° S 04:22:18 59° ESE 04:28:23 10° NNE
Cosmos 2154 Rocket 4.2 04:19:43 29° SW 04:22:46 52° W 04:28:53 10° N
ATLAS 2AS CENTAUR R/B 3.4 04:18:33 26° WSW 04:22:57 53° NW 04:30:54 10° NNE
BREEZE-M DEB (TANK) 4.1 04:04:10 10° NW 04:24:43 71° SW 04:29:24 10° SE
Cosmos 1805 3.8 04:22:30 20° SSE 04:25:01 57° E 04:28:52 10° NNE
Cosmos 389 Rocket 2.5 04:25:45 45° SW 04:26:34 60° W 04:30:07 10° N
Cosmos 1340 Rocket 2.7 04:23:59 10° NNW 04:27:56 68° W 04:30:02 26° S
CZ-2D R/B 3.9 04:25:53 10° N 04:30:00 46° WNW 04:31:32 31° SW
Aureole 2 Rocket 2.9 04:31:06 33° SW 04:32:46 61° WNW 04:36:49 10° N
Cosmos 1607 4.0 04:28:38 10° NW 04:35:00 64° WSW 04:41:21 10° SSE
Cosmos 1271 Rocket 3.8 04:34:42 27° W 04:35:31 29° WNW 04:39:03 10° NNW
MOS 1 Rocket 4.3 04:31:56 10° NNW 04:35:39 26° WNW 04:36:56 22° W
Meteor 1-22 Rocket 4.3 04:32:13 23° SSW 04:35:47 62° W 04:41:39 10° N
Cosmos 1356 Rocket 3.9 04:34:23 10° N 04:38:22 58° E 04:42:16 10° SSE
CZ-2D R/B 3.7 04:35:46 10° NNW 04:39:45 21° WNW 04:41:58 17° W
SEDSat Delta rocket 3.5 04:38:45 28° SW 04:40:10 37° S 04:44:06 10° ESE
Tiangong 1 3.0 04:42:14 14° SSE 04:42:57 16° SE 04:44:44 10° ESE
Cosmos 2341 Rocket 4.3 04:39:22 20° SSW 04:43:39 50° W 04:49:50 10° N
Cosmos 2366 rocket 4.2 04:37:42 10° S 04:43:48 74° E 04:50:00 10° N
UNKNOWN OBJECT B 4.1 04:40:42 10° NNW 04:43:51 25° WNW 04:45:00 21° W
ISS -3.5 04:42:20 10° WNW 04:45:26 42° SW 04:48:32 10° SSE
DELTA 2 R/B (1) 3.9 04:41:20 12° W 04:46:24 64° N 04:51:56 10° ENE
Lacrosse 5 rocket 3.4 04:43:14 10° NNW 04:46:53 32° NE 04:50:43 10° ESE
ATLAS 2A CENTAUR R/B 3.1 04:48:23 16° S 04:48:23 16° S 04:49:45 10° SSE
SeaSat 1 3.3 04:43:56 10° SE 04:48:43 54° ENE 04:53:32 10° NNW
Chunghua 1 4.4 04:48:12 21° W 04:50:29 68° S 04:54:09 10° ESE
Cosmos 1758 3.3 04:48:00 13° S 04:51:33 90° W 04:55:37 10° N
In-Cosmos 22 4.1 04:49:56 10° NNW 04:55:12 61° W 05:00:22 10° S
Cosmos 2360 Rocket 4.2 04:53:07 10° W 04:55:44 13° NW 04:58:23 10° NNW
ATLAS 3B R/B 2.5 04:49:32 10° NW 04:56:13 77° WSW 05:02:38 10° SSE
Cosmos 1953 2.3 04:54:16 10° S 04:58:18 87° WNW 05:02:20 10° N
SL-16 R/B 4.0 04:57:02 15° WSW 04:58:29 16° W 05:02:05 10° NW
Cosmos 2219 Rocket 2.7 04:54:37 18° SW 04:58:36 45° WNW 05:04:04 10° N
PSLV R/B 3.7 04:56:11 10° NNE 05:00:35 80° ESE 05:04:57 10° S
Cosmos 1544 4.0 04:58:47 19° SW 05:00:43 32° WNW 05:04:05 10° NNW
Cosmos 1980 3.7 04:56:34 14° SSW 05:01:31 73° WNW 05:07:13 10° NNE
COSMOS 2428 4.0 04:58:09 15° WSW 05:01:46 26° WNW 05:06:32 10° N
Cosmos 864 Rocket 4.4 04:55:54 10° S 05:02:05 84° W 05:08:14 10° N
Cosmos 2237 Rocket 2.2 04:57:59 13° SSW 05:03:06 77° WNW 05:08:45 10° NNE
Cosmos 2218 Rocket 4.0 04:58:07 10° SSW 05:04:19 67° W 05:10:40 10° N
CZ-4B R/B 2.8 05:03:20 10° N 05:07:13 72° WNW 05:11:17 10° SSW
Cosmos 1818 3.6 05:04:22 10° SSW 05:09:42 83° ESE 05:15:10 10° NNE
IRS-1C Rocket 4.3 05:04:28 10° NNE 05:09:44 73° ESE 05:14:58 10° S
PAYLOAD B 4.3 05:04:33 10° NNE 05:10:11 88° ESE 05:15:48 10° SSW
Cosmos 1844 Rocket 3.2 05:05:04 10° NW 05:10:15 38° WSW 05:15:25 10° S
PSLV R/B 4.1 05:08:45 10° N 05:12:34 50° WNW 05:16:26 10° SSW
CZ-4B R/B 3.4 05:07:03 10° NNE 05:12:44 82° ESE 05:18:19 10° SSW
Cosmos 1470 2.9 05:08:59 10° S 05:12:54 78° E 05:16:50 10° N
BREEZE-M DEB (TANK) 4.0 05:10:22 10° WNW 05:13:15 34° N 05:19:11 10° ENE
RESURS DK-1 4.1 05:13:03 10° S 05:16:42 31° ESE 05:20:23 10° NE
Cosmos 968 Rocket 3.4 05:13:50 10° NNW 05:18:58 67° WSW 05:24:01 10° S
USA 238 DEB 3.8 05:13:20 10° NW 05:20:22 66° WSW 05:27:26 10° SSE
Cosmos 2333 Rocket 3.0 05:15:30 12° SW 05:20:24 37° WNW 05:25:40 10° N
USA 238 3.8 05:13:26 10° NW 05:20:28 67° WSW 05:27:33 10° SSE
ATLAS CENTAUR R/B 3.4 05:17:09 10° NNW 05:20:57 28° NNE 05:23:01 10° E
DELTA 2 R/B(2) 3.8 05:21:52 11° W 05:23:25 44° N 05:25:34 10° ENE
ERBS 3.1 05:23:50 11° WSW 05:27:01 40° NW 05:30:19 10° NNE
Cosmos-2242 3.1 05:27:19 10° S 05:31:34 83° E 05:35:51 10° N
Atlas Centaur 2 3.2 05:28:54 10° SSW 05:32:28 24° SSE 05:36:42 10° ESE
NOSS 3-2 (A) 4.2 05:29:39 10° NNW 05:37:21 86° ENE 05:45:36 10° SSE
Cosmos 2278 Rocket 2.2 05:31:52 10° NNW 05:37:28 61° WSW 05:43:01 10° S
CZ-4B DEB 4.5 05:32:47 10° N 05:38:13 56° WNW 05:43:36 10° SSW
Timation 1 Rocket 4.4 05:34:20 10° NNW 05:40:13 61° WSW 05:46:05 10° S
